Regional Weather Roundup
Issued by NWS Charleston, SC

Current Version | Previous Version | Text Only | Print | Product List | Glossary Off
Versions: 1 2 3 4 5 6 7 8 9 10 11 12 13 14 15 16 17 18 19 20 21 22 23 24 25 26 27 28 29 30 31 32 33 34 35 36 37 38 39 40 41 42 43 44 45 46 47 48 49 50

000
ASUS42 KCHS 300312
RWRCHS

REGIONAL WEATHER ROUNDUP
NATIONAL WEATHER SERVICE CHARLESTON SC
1100 PM EDT FRI MAY 29 2015

NOTE: "FAIR" INDICATES FEW OR NO CLOUDS BELOW 12,000 FEET WITH NO
SIGNIFICANT WEATHER AND/OR OBSTRUCTIONS TO VISIBILITY.

NOT ALL STATIONS ARE QUALITY CONTROLLED BY THE NATIONAL
WEATHER SERVICE. USE DATA WITH CAUTION...ESPECIALLY
DEWPOINT OBSERVATIONS.

SCZ027-030-031-034>040-042>050-300400-
...SOUTHEAST SOUTH CAROLINA...

CITY           SKY/WX    TMP DP  RH WIND       PRES   REMARKS
N CHARLESTON   PTCLDY    73  68  84 E5        30.19R
WATERFRONT PAR   N/A     76  71  84 E7        30.16R
MOUNT PLEASANT LGT RAIN  70  70 100 CALM      30.19S
JOHNS ISLAND   PTCLDY    73  70  88 CALM      30.19S
PINOPOLIS        N/A     75  70  83 CALM      30.11R
MONCKS CORNER  FAIR      70  66  88 CALM      30.20R
SUMMERVILLE    FAIR      70  68  94 CALM      30.20S
BEAUFORT MCAS  CLEAR     75  68  78 E7        30.18R
BEAUFORT ARPT  FAIR      72  70  94 CALM      30.17S
HILTON HEAD IS PTCLDY    75  70  83 NE6       30.18S
WALTERBORO     CLEAR     70  64  83 E3        30.19S
ALLENDALE      FAIR      73  68  83 CALM      30.18S

...SOUTHERN MIDLANDS AND PEE DEE...

CITY           SKY/WX    TMP DP  RH WIND       PRES   REMARKS
GEORGETOWN     NOT AVBL
KINGSTREE      NOT AVBL
ORANGEBURG     CLOUDY    74  64  71 SE6       30.20R
BARNWELL       FAIR      73  68  83 E3        30.19S
AIKEN          FAIR      72  61  68 E5        30.23R
MANNING        FAIR      68  61  77 CALM      30.20S
COLUMBIA       PTCLDY    76  63  64 SE6       30.18R
SUMTER         CLEAR     73  67  81 S5        30.18R
FLORENCE       PTCLDY    74  66  76 SE3       30.20R
MYRTLE BEACH   CLEAR     75  68  78 SE7       30.22R
N MYRTLE BEACH PTCLDY    76  68  76 S5        30.20R

$$

GAZ063-065-086>088-099>101-113>116-118-119-134>141-150-300400-
...SOUTHEAST GEORGIA...

CITY           SKY/WX    TMP DP  RH WIND       PRES   REMARKS
SAVANNAH ARPT  PTCLDY    73  68  84 E7        30.17R
HUNTER AAF     CLEAR     74  71  89 E6        30.14S
FORT STEWART   PTCLDY    72  68  88 CALM      30.15R
STATESBORO     CLEAR     71  69  91 CALM      30.17S
SYLVANIA       CLEAR     74  70  86 CALM      30.19R
CLAXTON        FAIR      72  68  88 CALM      30.16F

...CSRA...CENTRAL AND FAR SOUTHEAST GEORGIA...

CITY           SKY/WX    TMP DP  RH WIND       PRES   REMARKS
THOMSON        PTCLDY    73  68  85 SE3       30.22R
AUGUSTA-BUSH   PTCLDY    75  66  73 SE6       30.17R
AUGUSTA-DANIEL PTCLDY    77  66  68 SE6       30.19R
SWAINSBORO     FAIR      77  68  73 SE6       30.17R
VIDALIA        CLOUDY    73  66  78 CALM      30.17R
EASTMAN        MOCLDY    78  67  71 SE6       30.17S
HAZLEHURST     FAIR      76  69  78 SE3       30.15R
ALMA           MOCLDY    71  65  81 E3        30.15R
WAYCROSS       CLEAR     73  69  87 SE3       30.15R
JESUP          CLOUDY    77  70  78 E5        30.16R
BAXLEY         CLOUDY    77  68  73 CALM      30.15R
BRUNSWICK      CLEAR     72  68  88 CALM      30.15S
SAINT SIMONS   NOT AVBL

$$

SCZ027-028-034-036>038-045-046-048>050-GAZ119-141-300400-
...LAKE AND SUPPLEMENTAL COASTAL OBSERVATIONS...

STATION/POSITION TIME  TEMP    WIND        PRES    WAVE   SWELL
                       AIR SEA DIR/SP/G            HT/PER HT/PER/DIR
                 (UTC) (F)     (DEG/KT/KT) (MB)    (FT/S) (FT/S/D)
UPR LAKE MARION  NOT AVBL
WINYAH BAY       0145   75     100/  7     1021.0
LAKE MURRAY      0200   78     140/  8/ 11 1021.3R
ACE BASIN NERRS  NOT AVBL
FORT PULASKI     0200   77 80   70/ 12/ 14 1021.8R
SAPELO ISLAND    0200   74      50/  4     1021.0S

$$

ANZ835-935-AMZ111-154-330-350-352-354-370-450-454-472-300400-
...C-MAN AND BUOY OBSERVATIONS...

STATION/POSITION TIME  TEMP    WIND        PRES    WAVE   SWELL
                       AIR SEA DIR/SP/G            HT/PER HT/PER/DIR
                 (UTC) (F)     (DEG/KT/KT) (MB)    (FT/S) (FT/S/D)
BUOY 41004       0250   77 78   90/ 14/ 17 1021.6R   4/ 9   3/ 9
BUOY 41008       0250   76 77   90/  2/  4 1021.2R   4/ 9   3/100/ 9
FOLLY BEACH CMAN 0300   76      80/  8/ 10 1022.2R
CAPERS NEARSHORE 0208   76      90/ 10/ 14 1022.2R
FRIPP NEARSHORE  0200   77      90/ 12/ 16 1021.3R


STATION/POSITION TIME  TEMP    WIND        PRES    WAVE   SWELL
                       AIR SEA DIR/SP/G            HT/PER HT/PER/DIR
                 (UTC) (F)     (DEG/KT/KT) (MB)    (FT/S) (FT/S/D)
5E ST. MARYS GA  0221      80                N/A     3/11   2/100/11
FRYING PAN BUOY  0250   77 75  130/ 12/ 14 1023.2R   4/ 9   3/100/ 9
BUOY 41025       0250   76 80  120/ 12/ 16 1023.6F   3/ 9   3/110/ 9
CAPE LOOKOUT NC  0200   75     120/ 10/ 11 1023.1R
BUOY 41002       0250   75 75   90/ 16/ 17 1022.4R   6/ 9   5/ 90/ 9
BUOY 41010       0220   78 81   80/ 14/ 16 1019.5R
ST AUGUSTINE FL  0300   76 79   60/ 14/ 16 1020.8S


$$


USA.gov is the U.S. government's official web portal to all federal, state and local government web resources and services.